TimeCDT,TemperatureF,Dew PointF,Humidity,Sea Level PressureIn,VisibilityMPH,Wind Direction,Wind SpeedMPH,Gust SpeedMPH,PrecipitationIn,Events,Conditions,WindDirDegrees,DateUTC
12:51 AM,51.1,37.0,59,29.92,10.0,North,6.9,-,N/A,,Scattered Clouds,360,2012-11-02 05:51:00
1:51 AM,48.9,35.1,59,29.93,10.0,North,6.9,-,N/A,,Scattered Clouds,350,2012-11-02 06:51:00
2:51 AM,46.9,34.0,61,29.95,10.0,North,8.1,-,N/A,,Partly Cloudy,360,2012-11-02 07:51:00
3:51 AM,44.1,33.1,65,29.97,10.0,North,6.9,-,N/A,,Scattered Clouds,350,2012-11-02 08:51:00
4:51 AM,44.1,32.0,63,29.98,10.0,North,8.1,-,N/A,,Mostly Cloudy,360,2012-11-02 09:51:00
5:51 AM,42.1,30.9,65,30.01,10.0,North,5.8,-,N/A,,Scattered Clouds,10,2012-11-02 10:51:00
6:51 AM,42.1,30.0,62,30.03,10.0,NNE,5.8,-,N/A,,Mostly Cloudy,30,2012-11-02 11:51:00
7:51 AM,41.0,30.0,65,30.06,10.0,NE,3.5,-,N/A,,Mostly Cloudy,40,2012-11-02 12:51:00
8:51 AM,42.1,30.9,65,30.08,10.0,NE,8.1,-,N/A,,Mostly Cloudy,40,2012-11-02 13:51:00
9:51 AM,46.0,30.9,56,30.09,10.0,ENE,8.1,-,N/A,,Mostly Cloudy,70,2012-11-02 14:51:00
10:51 AM,48.9,30.0,48,30.10,10.0,East,4.6,-,N/A,,Mostly Cloudy,100,2012-11-02 15:51:00
11:51 AM,50.0,30.9,48,30.10,10.0,ESE,5.8,-,N/A,,Mostly Cloudy,120,2012-11-02 16:51:00
12:51 PM,52.0,30.9,45,30.08,10.0,East,6.9,-,N/A,,Mostly Cloudy,100,2012-11-02 17:51:00
1:51 PM,54.0,32.0,43,30.06,10.0,East,5.8,-,N/A,,Mostly Cloudy,90,2012-11-02 18:51:00
2:51 PM,55.0,32.0,42,30.04,10.0,Variable,3.5,-,N/A,,Mostly Cloudy,0,2012-11-02 19:51:00
3:51 PM,55.4,32.0,41,30.04,10.0,ESE,5.8,-,N/A,,Mostly Cloudy,110,2012-11-02 20:51:00
4:51 PM,55.0,32.0,42,30.04,10.0,SE,6.9,-,N/A,,Mostly Cloudy,130,2012-11-02 21:51:00
5:51 PM,53.1,30.9,43,30.04,10.0,East,9.2,-,N/A,,Mostly Cloudy,100,2012-11-02 22:51:00
6:51 PM,51.1,30.0,44,30.05,10.0,East,9.2,-,N/A,,Scattered Clouds,90,2012-11-02 23:51:00
7:51 PM,50.0,32.0,50,30.06,10.0,East,6.9,-,N/A,,Scattered Clouds,100,2012-11-03 00:51:00
8:51 PM,48.0,33.1,56,30.06,10.0,East,6.9,-,N/A,,Mostly Cloudy,100,2012-11-03 01:51:00
9:51 PM,48.0,33.1,56,30.06,10.0,ESE,9.2,-,N/A,,Mostly Cloudy,110,2012-11-03 02:51:00
10:51 PM,46.9,33.1,59,30.06,10.0,ESE,9.2,-,N/A,,Scattered Clouds,110,2012-11-03 03:51:00
11:51 PM,46.4,33.8,62,30.05,10.0,ESE,9.2,-,N/A,,Scattered Clouds,110,2012-11-03 04:51:00